www.pogodaiklimat.ru

Погода и климат >> Архив погоды >> Индонезия >> Амбона


ПОГОДА в Амбоне

  • Прогноз погоды в Амбоне
  • Монитор погоды в Амбоне

АРХИВ ПОГОДЫ в Амбоне

Время (UTC), дата Ветер
(напр.,м/с)
 
Видим.   Явления Облачность Т
(С)
Тd
(С)
f
(%)
Тe
(С)
Тes
(С)
Комфортность P
(гПа)
Po
(гПа)
Тmin
(С)
Tmax
(С)
R
(мм)
R24
(мм)
S
(см)
09 12.05 ЮЗ 2 10 км 6/3 570 м
[Cu med, cong Ac As Ci sp]
+28.2 +23.5 76 +38 +39 очень
душно
1010.9 1009.0
12 12.05 СЗ 3 10 км 6/4 570 м
[Cu med, cong Ac As Ci sp]
+26.0 +23.7 87 +35 +35 очень
душно
1012.5 1010.6 +31.1
15 12.05 СЗ 3 10 км 6/3 570 м
[Cu med, cong Ac As Ci sp]
+25.7 +23.9 90 +35 +35 очень
душно
1012.1 1010.1
18 12.05 СЗ 1 10 км 6/3 570 м
[Cu med, cong Ac As Ci sp]
+25.3 +23.9 92 +35 +35 очень
душно
1010.8 1008.9
21 12.05 штиль 0 10 км 6/3 570 м
[Cu med, cong Ac As Ci fib]
+24.6 +23.3 92 +33 +33 очень
душно
1010.6 1008.6
00 13.05 ЮВ 2 10 км 6/3 600 м
[Cu med, cong Ac trans Ci sp]
+29.0 +25.0 79 +42 +46 опасность
перегрева
1012.3 1010.4 +23.0
03 13.05 Ю 2 10 км 6/4 570 м
[Cu Sc Ac trans Ci sp]
+30.7 +24.5 70 +43 +53 опасность
перегрева
1011.4 1009.5
06 13.05 Ю 5 10 км 9/6 500 м
[Cb cap Ac trans Cs]
+30.6 +24.9 72 +44 +46 опасность
перегрева
1009.4 1007.5
09 13.05 СВ 2 10 км в посл. час дождь 9/8 500 м
[Cb cap Ac trans Cs]
+27.4 +25.0 87 +39 +39 очень
душно
1010.1 1008.2 2
12 13.05 С 2 10 км слаб. дождь 9/8 500 м
[Cb cap Ac trans Cs]
+26.2 +25.0 93 +37 +37 очень
душно
1011.9 1010.0 +31.5 4
15 13.05 СЗ 3 10 км {дождь} 9/6 540 м
[Cu Sc Ac trans Cs]
+25.2 +23.1 88 +34 +34 очень
душно
1012.0 1010.1 4
18 13.05 С 2 9000 м в посл. час дождь 9/8 500 м
[Cb cap Ac trans Ci sp]
+24.9 +24.2 96 +34 +34 очень
душно
1010.7 1008.8 0.3
21 13.05 С 2 10 км в посл. час дождь 9/6 540 м
[Cu Sc Ac As Ci sp]
+24.7 +24.2 97 +34 +34 очень
душно
1010.8 1008.9 2
00 14.05 СВ 2 10 км 8/5 540 м
[Cu Sc Ac As Cs]
+28.4 +24.8 81 +41 +43 опасность
перегрева
1012.2 1010.3 +23.1 12
03 14.05 Ю 4 10 км 8/5 540 м
[Cu Sc Ac As Cs]
+30.5 +24.2 69 +42 +47 опасность
перегрева
1011.1 1009.2
06 14.05 СЗ 1 10 км в посл. час дождь 9/5 500 м
[Cu Sc Ac As Cs]
+28.4 +24.9 81 +41 +45 опасность
перегрева
1009.2 1007.3 0.2
12 14.05 СЗ 2 10 км в посл. час дождь 9/6 480 м
[Cb cap Ac As Cs]
+26.1 +24.4 90 +36 +36 очень
душно
1011.7 1009.8 +31.2 2
15 14.05 ЮВ 3 7000 м слаб. дождь 9/6 480 м
[Cb cap Ac As Cs]
+26.0 +24.6 92 +37 +37 очень
душно
1011.7 1009.8 3
18 14.05 СЗ 1 10 км {дождь} 9/6 500 м
[Cu Sc Ac As Cs]
+25.5 +24.7 95 +36 +36 очень
душно
1009.6 1007.7 0.4
21 14.05 Ю 2 9000 м в посл. час дождь 9/6 480 м
[Cb cap Ac As Cs]
+26.3 +25.2 94 +38 +38 очень
душно
1010.7 1008.8 24
00 15.05 В 1 9000 м {дождь} 6/5 500 м
[Cu Sc Ac As Ci sp]
+28.1 +25.2 84 +41 +45 опасность
перегрева
1013.0 1011.1 +24.9 30
03 15.05 ЮВ 3 9000 м в посл. час дождь 6/4 480 м
[Cb cap Ac As Ci sp]
+29.8 +23.4 69 +40 +48 очень
душно
1011.7 1009.8 0.0
06 15.05 Ю 3 10 км 6/5 500 м
[Cu Sc Ac As Ci sp]
+30.4 +24.7 72 +43 +48 опасность
перегрева
1009.8 1007.9 0.0
09 15.05 Ю 2 10 км в посл. час дождь 9/5 500 м
[Cu Sc Ac As Cs]
+28.8 +25.2 81 +42 +42 опасность
перегрева
1010.5 1008.6 0.0
12 15.05 СЗ 2 10 км в посл. час дождь 9/6 500 м
[Cu Sc Ac As Cs]
+25.5 +24.7 95 +36 +36 очень
душно
1012.5 1010.5 +31.1 2
15 15.05 СЗ 3 10 км 9/6 500 м
[Cu Sc Ac As Cs]
+25.6 +24.4 93 +36 +36 очень
душно
1012.0 1010.1
18 15.05 СЗ 4 10 км 9/6 500 м
[Cu Sc Ac As Cs]
+25.0 +24.3 96 +35 +35 очень
душно
1011.1 1009.2
21 15.05 С 3 10 км 9/6 500 м
[Cu Sc Ac As Cs]
+25.5 +24.7 95 +36 +36 очень
душно
1010.0 1008.1
00 16.05 В 1 10 км 9/6 500 м
[Cu Sc Ac As Ci sp]
+28.0 +24.5 81 +39 +41 очень
душно
1011.5 1009.6 +25.0 2
03 16.05 СЗ 1 10 км в посл. час дождь 9/8 500 м
[Cb cap Ac As Ci sp]
+27.8 +24.9 84 +40 +43 очень
душно
1010.8 1008.9 1
06 16.05 Ю 3 8000 м в посл. час дождь 9/5 500 м
[Cb cap Ac As Ci sp]
+28.4 +24.3 78 +40 +42 очень
душно
1008.8 1006.9 0.0
09 16.05 Ю 2 10 км 9/6 500 м
[Cb cap Ac As Cs]
+28.4 +24.3 78 +40 +40 очень
душно
1009.3 1007.4
12 16.05 З 1 10 км 9/6 500 м
[Cb cap Ac As Cs]
+27.0 +24.8 88 +39 +39 очень
душно
1010.7 1008.8 +31.0
15 16.05 СЗ 3 9000 м в посл. час дождь 9/6 500 м
[Cb cap Ac As Cs]
+26.0 +24.5 91 +36 +36 очень
душно
1010.6 1008.6 0.9
18 16.05 Ю 3 9000 м гроза без осадков 9/6 480 м
[Cb cap Ac As Cs]
+26.5 +25.4 94 +39 +39 очень
душно
1009.5 1007.6 0.9
21 16.05 С 2 9000 м слаб. дождь 9/6 480 м
[Cb cap Ac As Cs]
+25.5 +24.5 94 +36 +36 очень
душно
1009.8 1007.9 0.0
00 17.05 ЮЗ 3 9000 м осадки на расстоянии {гроза} 9/8 480 м
[Cb cap Ac As Cs]
+27.5 +25.3 88 +40 +41 очень
душно
1011.3 1009.4 +25.1 3
03 17.05 ЮЗ 4 4000 м слаб. ливневой дождь, в посл. час гроза 10/8 480 м
[Cb cap Ac As Cs]
+26.6 +24.5 88 +37 +39 очень
душно
1010.9 1009.0 0.6
06 17.05 ЮВ 1 8000 м гроза, ливневой дождь 10/8 480 м
[Cb cap Ac As Cs]
+27.6 +25.5 88 +40 +42 очень
душно
1008.5 1006.6 4
09 17.05 СЗ 1 6000 м слаб. дождь {гроза} 10/8 480 м
[Cb cap Ac As]
+25.0 +24.0 94 +34 +34 очень
душно
1009.7 1007.8 26
12 17.05 С 2 7000 м слаб. дождь {гроза} 10/6 480 м
[Cb cap Ac As]
+25.2 +24.5 96 +35 +35 очень
душно
1011.3 1009.4 +24.5 0.0
15 17.05 В 3 7000 м в посл. час дождь {гроза} 10/6 480 м
[Cb cap Ac As]
+25.0 +24.6 98 +35 +35 очень
душно
1011.2 1009.4 0.0
18 17.05 СЗ 2 10 км {гроза, дождь} 10/6 480 м
[Cb cap Ac As]
+24.8 +23.8 94 +34 +34 очень
душно
1010.4 1008.5 0.0
21 17.05 С 2 10 км 8/5 480 м
[Cb cap Ac As Ci fib]
+24.6 +23.5 94 +33 +33 очень
душно
1010.8 1008.9
00 18.05 В 1 10 км 8/5 500 м
[Cb cap Ac As Ci sp]
+28.6 +25.1 81 +41 +44 опасность
перегрева
1012.4 1010.5 +24.0 31
03 18.05 ЮЗ 2 10 км 8/4 570 м
[Cu Sc Ac As Ci sp]
+29.9 +24.9 75 +43 +50 опасность
перегрева
1011.6 1009.7
06 18.05 ЮЗ 3 10 км 8/4 570 м
[Cu Sc Ac As Ci sp]
+29.8 +25.1 76 +43 +47 опасность
перегрева
1009.0 1007.1
09 18.05 З 2 10 км 6/4 570 м
[Cu Sc Ac As Ci sp]
+28.7 +25.2 81 +42 +42 опасность
перегрева
1009.4 1007.5
12 18.05 СЗ 3 10 км 6/3 570 м
[Cu med, cong Ac As Ci sp]
+26.2 +25.0 93 +37 +37 очень
душно
1011.5 1009.6 +30.2
15 18.05 СВ 1 10 км 6/3 570 м
[Cu med, cong Ac As Ci sp]
+25.6 +24.1 91 +35 +35 очень
душно
1012.0 1010.1
18 18.05 С 1 10 км в посл. час дождь 8/5 540 м
[Cu Sc Ac As Ci sp]
+25.0 +24.2 95 +34 +34 очень
душно
1011.2 1009.3 2
21 18.05 СЗ 2 10 км 8/5 540 м
[Cu Sc Ac As Ci sp]
+25.0 +23.6 92 +34 +34 очень
душно
1010.7 1008.8
00 19.05 Ю 1 10 км 6/3 570 м
[Cu med, cong Ac As Cs]
+27.7 +24.8 84 +39 +44 очень
душно
1012.3 1010.4 +22.8 2
03 19.05 ЮЗ 4 10 км 8/4 570 м
[Cu Sc Ac As Cs]
+29.4 +24.9 77 +42 +48 опасность
перегрева
1011.9 1010.0

 

Местоположение метеостанции Амбона (Индонезия): широта -3.70 долгота 128.08 высота над уровнем моря 12 м.

В архиве по умолчанию представлена погода в Амбоне за последнюю неделю. Архивные данные за месяц целиком и за предыдущие месяцы, начиная с января 2011 года, Вы можете получить, выбрав интересующий диапазон дат из раскрывающегося списка и нажав кнопку "Ввод!".


*Определитесь, кто Вы:
робот инопланетянин человек

Внимание! Время в таблицах - всемирное. Для получения местного времени необходимо прибавить поправку, которая равна 9 ч.

Смотрите также архив погоды в соседних городах и на ближайших метеорологических станциях:

Погода в Амахаи (Индонезия) (97 км)
Погода в Намлеа (Индонезия) (122 км)
Погода в Неира (Индонезия) (222 км)
Погода в Тауне (Индонезия) (290 км)
Погода на Санане (Индонезия) (293 км)
Погода в Гесере (Индонезия) (305 км)
Погода в Лабухе (Индонезия) (347 км)
Погода в Аэропорту Соронг-Джефман (Индонезия) (456 км)
Погода в Факфаке (Индонезия) (472 км)
Погода в Тернате (Индонезия) (504 км)

Пояснения к столбцам:

Ветер - указаны скорость ветра в м/с - средняя за 10 мин, порывы в срок и между сроками (в фигурных скобках) и направление, откуда дует ветер: С - северный, СВ - северо-восточный, В - восточный, ЮВ - юго-восточный, Ю - южный, ЮЗ - юго-западный, З - западный, СЗ - северо-западный.
Видимость - горизонтальная дальность видимости в метрах или километрах. При видимости от 1 до 10 км при отсутствии осадков обычно наблюдается дымка, при ухудшении видимости до 1 км и менее - туман. В сухую погоду видимость может ухудшаться дымом, пылью или мглою.
Явления - указаны атмосферные явления, наблюдавшиеся в срок или в последний час перед сроком; фигурными скобками обозначены явления, наблюдавшиеся между сроками (за 1-3 часа до срока); квадратными скобками обозначены град или гололедные отложения с указанием их диаметра в мм.
Облачность - указаны через наклонную черту общая и нижняя облачность в баллах и высота нижней границы облаков в метрах; квадратными скобками обозначены формы облаков: Ci - перистые, Cs - перисто-слоистые, Cc - перисто-кучевые, Ac - высококучевые, As - высокослоистые, Sc - слоисто-кучевые, Ns - слоисто-дождевые, Cu - кучевые, Cb - кучево-дождевые. Подробнее классификацию облаков см. в Атласе облаков (PDF).
T - Температура воздуха - температура, измеренная на высоте 2 м над землей.
Td - Температура точки росы - температура, при понижении до которой содержащийся в воздухе водяной пар достигнет насыщения.
f - Относительная влажность воздуха - влажноcть воздуха, измеренная на высоте 2 м над землей.
Te - Эффективная температура - температура, которую ощущает одетый по сезону человек в тени. Характеристика душности погоды. При расчете учитывается влияние влажности воздуха и скорости ветра на теплоощущения человека.
Tes - Эффективная температура на солнце - температура, которую ощущает человек, с поправкой на солнечный нагрев. Характеристика знойности погоды. Зависит от высоты солнца над горизонтом, облачности и скорости ветра. Ночью, в пасмурную погоду, а также при ветре 12 м/с и более поправка равна нулю.
P - Атмосферное давление - приведенное к уровню моря атмосферное давление.
Po - Атмосферное давление - измеренное на уровне метеостанции атмосферное давление.
Tmin - Минимальная температура - минимум температуры воздуха на высоте 2 м над землей.
Tmax - Максимальная температура - максимум температуры воздуха на высоте 2 м над землей.
R - Количество осадков - Количество выпавших осадков за период времени, мм. При наведении курсора мыши на число - период времени, за который выпало указанное количество осадков.
R24 - Количество осадков - Количество выпавших осадков за 24 часа, мм.
S - Снежный покров - Высота снежного покрова, см. При наведении курсора мыши на число - состояние снежного покрова и степень покрытия местности в баллах.